The Dilly Family's Weather Page
McMurray, PA 15317   Weather
Using a La Crosse Technology Model 2315 Weather Station

  Local Radar

Local Radar

  Graphs, Details
Detailed Weather
Detailed Reports
Mobile Version of This Page
Brief Version of This Page
  Maps
Temperature
Heat Index
Windchill
Humidity
Radar
Dew Point
Wind
Visibility
Visible Satellite
Satellite
Fronts
Snow Depth
Jet Stream
Flight Rules
  Forecast Maps
Temperature Forecast
Maximum Temperature Forecast
Minimum Temperature Forecast
Dewpoint Forecast
Prevalent Weather
12Hr Probability of Precip.
Sky Cover
  Health Maps
UV Forecast
Air Quality
Peak Air Quality Index
  Weather Station
La Crosse Technology
 
 
Weather Underground PWS KPAMCMUR4
KPAMCMUR4 Dashboard
 

HeavyWeather Data
WeatherForYou.com METAR
Worldwide Station List METAR
Meteorological Products Processed At The NWSTG
Stickers       Local PC Clock

  Current Conditions [Select Refresh to Update]

Updated: 1:44pm on 4/21/15

Currently:
56.4°

Clear
Mostly Cloudy

High: 57.3° 
(1:14pm) 
Low: 45.3° 
(7:17am)
Wind: 3 mph from the SW
Gust: 3 mph
Today's High Wind: 25 mph (12:18pm)
Humidity: 36%
Pressure: 29.67 in  (Steady) 
Pressure Rate: -0.006 in/hr
Dew Point: 29.8°
Wind Chill: 56.4°
Heat Index (feels like): 56.0°
Comfort Level: Cool
Temperature Rate:  0.81°/hr
 
  5 Day Forecast
 
Wed Thu Fri Sat Sun
Clear Clear Clear Clear Clear
Rain Mostly Cloudy Mostly Cloudy Chance Rain Mostly Cloudy
48° 47° 51° 54° 56°
34° 32° 32° 34° 36°

  Records and Normals
 
Temperature Forecast Normal Record
High 48° 66° 88°
(1954)
Low 34° 43° 28°
(1956)
 
  Almanac
Sunrise:  
6:32am
Moonrise: 
8:50am

Moon Phase:
10%

Sunset: 
8:03pm
Moonset:  
11:26pm
 
  Weather Underground     KPAMCMUR4

  Weather Advisories
No Warning
Full Advisory Text...
  Weather Map

 
  Web Cams   (Northerly View)
Northerly view toward Pittsburgh.
 
  Rainfall Totals
Hourly Rain 0.00 in
Daily Rain 0.00 in
Monthly Rain 3.68 in
Yearly Rain 10.33 in
Normal Rain, month to date       4.68 in
Normal Rain, year to date 15.16 in
 
 
Weather.com
WeatherUnderground NorthEast Fronts
WeatherUnderground NorthEast Radar
WeatherBug NorthEast Radar
WeatherBug, Peters HS
WPXI Weather
KDKA Weather
WTEA Weather
Intellacast Canonsburg
AccuWeather
Yahoo, McMurray
Twitter, Pittsburgh
Fox53 Radar - Uses Pop-up Ads!
Time and Date, Pittsburgh
NOAA Weather Pitt
FilghtStats PIT
NWS Thompsonville
USGS Tides and Temperature at Manasquan
NWS US Radar - Loop
Windyty, Wind Forecast
  Local Weather Exchange Network
Station ID

City 
(Click for Map Location)

Neighborhood 
(Click for History)
Last Update (Date & Time)

Temperature
 (°)

Dew
Point (°)
Humidity 
(%)
Wind 
(mph)
from the Wind Gust 
(mph) 
Pressure (in) Hourly
Rain (in)
KPACANON5 Canonsburg Canonsburg 04/21 13:40:08 60.0 31.0 34 11 West 13 29.72 0.00
KPAMCMUR4 McMurray Thompsonville-McMurray 04/21 13:40:02 56.6 32.0 39 14 WSW 0 29.67 0.00
KPABRIDG3 Bridgeville Willowbrook 04/21 13:39:54 57.0 24.0 28 15 SW 18 29.73 0.00
KPACANON6 Canonsburg Sunset Acres, McMurray PA KPACANON6 04/21 13:29:40 57.9 28.0 32 6 WNW 0 29.67 0.00
KPAMCMUR3 McMurray St. Benedict the Abbot 04/21 13:38:35 56.7 25.0 29 10 SW 28 29.66 0.00
KPABRIDG2 Bridgeville Hunting Ridge 04/21 13:30:04 55.4 30.0 37 0 East 0 28.54 0.00
KPAEIGHT3 Eighty Four Nottingham Twp. 04/21 13:39:53 56.6 31.0 38 36 SW 36 29.69 0.00
KPAVENET5 Venetia Willamar 04/21 13:30:16 58.3 30.0 34 10 West 0 29.60 0.00
KPABRIDG1 Bridgeville Olde Orchard South Fayette Bridgeville 04/21 13:39:50 58.6 32.0 37 2 SSE 5 29.61 0.00
KPAVENET3 Venetia Bower Hill Rd 04/21 13:40:09 59.2 36.0 42 0 SSW 0 29.70 0.00
KPABETHE4 Bethel Park Bethel Park, PA - Terrasurv 04/21 13:36:42 54.1 25.0 31 11 WSW 26 29.69 0.00
MD6598 Cuddy APRSWXNET 04/21 13:10:00 54.0 28.0 37 12 West 23 29.70 0.00
KPAPITTS109 Pittsburgh Tragone Drive 04/21 13:35:51 56.7 33.0 41 0 North 0 29.80 0.00
KPABETHE3 Bethel Park Bethel Park 04/21 13:35:17 57.2 29.0 34 9 SW 18 29.70 0.00
KPAWASHI5 Washington Cameron Estates/South Strabane 04/21 13:27:21 56.0 30.0 37 10 WSW 0 29.74 0.00
KPAVENET4 Venetia Sugar Run Road 04/21 13:40:05 57.5 25.0 28 6 SW 16 29.50 0.00
KPAFINLE2 Finleyville Banahasky Lane 04/21 13:36:07 61.0 45.0 56 0 North 0 29.59 0.00
KPAPITTS89 Pittsburgh Washington Road 04/21 13:35:47 57.4 33.0 40 0 North 0 29.80 0.00
KPAWASHI3 Washington Canton Twp. 04/21 13:37:27 54.8 27.0 35 20 North 35 29.68 0.00
KPASCOTT2 Scott Township Scott Township Neighborhood Weather 04/21 13:40:08 60.8 21.0 21 6 ESE 13 29.72 0.00
KPAPITTS87 Pittsburgh Mt. Lebanon, PA 04/21 13:39:59 57.0 24.0 28 4 SW 13 29.77 0.00
KPAPITTS98 Pittsburgh Jamestown Road 04/21 13:35:50 61.3 30.0 30 0 North 0 29.76 0.00
KPAPITTS50 Pittsburgh Dormont 04/21 13:40:00 59.7 23.0 24 7 SW 11 29.34 0.00
KPAPITTS97 Pittsburgh Greentree 04/21 13:39:54 56.8 23.0 27 14 SW 20 29.62 0.00
KPAPITTS103 Pittsburgh Overbrook 04/21 13:35:58 56.5 28.0 33 0 North 0 29.64 0.00
KPAPITTS88 Pittsburgh Village Green Drive 04/21 13:35:54 57.7 29.0 33 0 North 0 29.79 0.00
KPAPITTS29 Pittsburgh Carrick/Pittsburgh 04/21 13:38:25 57.7 30.0 34 5 NNW 12 29.68 0.00
KPACRAFT2 Crafton Bradford Court 04/21 13:40:08 60.4 35.0 38 6 West 11 29.70 0.00
KPAPITTS58 Pittsburgh Robinson Township 04/21 13:40:00 57.0 29.0 34 8 SSW 8 29.68 0.00
KPAIMPER1 Imperial Imperial Neighborhood Weather 04/21 13:35:58 56.3 25.0 30 2 NNW 16 29.69 0.00
KPAIMPER4 Imperial Walden Woods 04/21 13:40:06 57.4 19.0 22 9 WNW 12 29.84 0.00
KPAPITTS46 Pittsburgh Baldwin 04/21 13:40:06 58.0 28.0 32 0 North 0 29.74 0.00
KPAPITTS62 Pittsburgh Crafton Heights 04/21 13:39:48 57.2 24.0 27 2 South 12 29.61 0.00
KPACLAIR2 Clairton Jefferson Hills 04/21 13:40:06 58.6 29.0 32 2 WSW 5 29.75 0.00
KPAWASHI2 Washington South Franklin, Alamae Lakes 04/21 13:36:05 55.6 28.0 35 15 WSW 18 29.70 0.00
KPAMCKEE6 McKees Rocks Fawn Acres 04/21 13:39:03 58.3 28.0 32 2 NNW 11 29.72 0.00
KAFJ Washington Official Station 04/21 13:35:00 55.0 25.0 31 21 WSW --- 29.75 ---
KAGC Pittsburgh Allegheny Co. Official Station 04/21 12:53:00 57.0 20.0 24 22 WSW --- 29.73 ---
KPIT Pittsburgh Official Station 04/21 12:51:00 56.0 19.0 24 18 SW --- 29.73 ---
  Full Advisory Text
No Warnings

4/21/15 4+ 1:44pm   - http://weatherstation.wunderground.com/weatherstation/updateweatherstation.php?action=updateraw&ID=KPASMITH2&PASSWORD=&dateutc=2010-07-05+22%3A09%3A33&winddir=SW&tempf=56.4&windspeedmph=3&humidity=36&dewptf=29.8&baromin=29.67&rainin=0.00&dailyrainin=0.00

Ambient Weather and Weather Underground
 Never base important decisions on this or any weather information obtained from the Internet
Updated Automatically by Ambient Weather's Virtual Weather Station  V14.00

Template updated: 7:39 AM 2/21/2015